User: anonymous   Login
Location: Unspecified
(0.0000°N, 0.0000°E)
Time: 21:51:49
(UTC+02:00)
Language:

ARIANE 44L R/B - Orbit

View from above orbital plane
View from above orbital plane
View from above satellite
View from above satellite

Ground track
Ground track

The orbit data is extracted from the following two-line orbital elements,

1 26901U 01039B   18146.02214649  .00000885  00000-0  25074-3 0  9991
2 26901   7.4144 302.2496 6856246 357.3993   0.2346  2.82629237153243
Epoch (UTC): 26 May 2018 00:31:53
Eccentricity: 0.6856246
inclination: 7.4144°
perigee height: 265 km
apogee height: 29241 km
right ascension of ascending node: 302.2496°
argument of perigee: 357.3993°
revolutions per day: 2.82629237
mean anomaly at epoch: 0.2346°
orbit number at epoch: 15324

The dashed part of the orbit path shows where the satellite is in the earth's shadow,  

DLR